| time (UTC) | temp F | wind direction | speed MPH | gust MPH | rain 1hr in | rain 24hr in | rain mn in | humidity % | barometer mb |
| 20260901212025 | 100 | 135 | 1.0 | 4.0 | 0.00 | 0.00 | 0.00 | 34 | 1009.6 |
| 20260901211545 | 100 | 131 | 1.0 | 3.0 | 0.00 | 0.00 | 0.00 | 35 | 1009.6 |
| 20260901211026 | 100 | 270 | 1.0 | 3.0 | 0.00 | 0.00 | 0.00 | 34 | 1009.6 |
| 20260901210524 | 100 | 179 | 1.0 | 3.0 | 0.00 | 0.00 | 0.00 | 34 | 1009.9 |
| 20260901210039 | 100 | 235 | 1.0 | 2.0 | 0.00 | 0.00 | 0.00 | 34 | 1009.7 |
| 20260901205524 | 100 | 280 | 1.0 | 4.0 | 0.00 | 0.00 | 0.00 | 34 | 1009.8 |
| 20260901205025 | 100 | 267 | 1.0 | 4.0 | 0.00 | 0.00 | 0.00 | 35 | 1010.0 |
| 20260901204521 | 100 | 280 | 1.0 | 4.0 | 0.00 | 0.00 | 0.00 | 34 | 1010.0 |
| 20260901204022 | 100 | 275 | 1.0 | 3.0 | 0.00 | 0.00 | 0.00 | 34 | 1010.1 |
| 20260901203521 | 100 | 155 | 1.0 | 3.0 | 0.00 | 0.00 | 0.00 | 35 | 1010.2 |
| 20260901203040 | 100 | 145 | 1.0 | 3.0 | 0.00 | 0.00 | 0.00 | 35 | 1010.2 |
| 20260901202529 | 100 | 150 | 1.0 | 3.0 | 0.00 | 0.00 | 0.00 | 34 | 1010.2 |
| 20260901202023 | 100 | 141 | 1.0 | 3.0 | 0.00 | 0.00 | 0.00 | 35 | 1010.2 |
| 20260901201525 | 100 | 154 | 2.0 | 5.0 | 0.00 | 0.00 | 0.00 | 35 | 1010.3 |
| 20260901201022 | 99 | 156 | 1.0 | 4.0 | 0.00 | 0.00 | 0.00 | 36 | 1010.5 |
| 20260901200528 | 99 | 145 | 2.0 | 5.0 | 0.00 | 0.00 | 0.00 | 34 | 1010.4 |
| 20260901200043 | 99 | 289 | 1.0 | 3.0 | 0.00 | 0.00 | 0.00 | 35 | 1010.4 |
| 20260901195522 | 99 | 271 | 1.0 | 3.0 | 0.00 | 0.00 | 0.00 | 35 | 1010.4 |
| 20260901195033 | 99 | 171 | 1.0 | 4.0 | 0.00 | 0.00 | 0.00 | 35 | 1010.5 |
| 20260901194543 | 99 | 135 | 1.0 | 5.0 | 0.00 | 0.00 | 0.00 | 35 | 1010.4 |
| 20260901194041 | 99 | 150 | 1.0 | 3.0 | 0.00 | 0.00 | 0.00 | 35 | 1010.6 |
| 20260901193523 | 99 | 153 | 1.0 | 4.0 | 0.00 | 0.00 | 0.00 | 36 | 1010.8 |
| 20260901193021 | 99 | 221 | 0.0 | 2.0 | 0.00 | 0.00 | 0.00 | 36 | 1010.8 |
| 20260901192520 | 99 | 141 | 2.0 | 4.0 | 0.00 | 0.00 | 0.00 | 36 | 1011.0 |
| 20260901192022 | 99 | 156 | 1.0 | 4.0 | 0.00 | 0.00 | 0.00 | 36 | 1010.9 |
| 20260901191543 | 99 | 157 | 1.0 | 4.0 | 0.00 | 0.00 | 0.00 | 36 | 1011.0 |
| 20260901191028 | 99 | 137 | 1.0 | 2.0 | 0.00 | 0.00 | 0.00 | 36 | 1011.0 |
| 20260901190522 | 99 | 170 | 1.0 | 3.0 | 0.00 | 0.00 | 0.00 | 36 | 1011.0 |
| 20260901190022 | 99 | 152 | 1.0 | 4.0 | 0.00 | 0.00 | 0.00 | 37 | 1011.3 |
| 20260901185522 | 99 | 115 | 1.0 | 3.0 | 0.00 | 0.00 | 0.00 | 35 | 1011.1 |
| 20260901185022 | 99 | 155 | 2.0 | 4.0 | 0.00 | 0.00 | 0.00 | 34 | 1010.7 |
| 20260901184522 | 99 | 156 | 1.0 | 4.0 | 0.00 | 0.00 | 0.00 | 35 | 1011.0 |
| 20260901184021 | 99 | 137 | 2.0 | 5.0 | 0.00 | 0.00 | 0.00 | 36 | 1011.0 |
| 20260901183520 | 100 | 152 | 1.0 | 4.0 | 0.00 | 0.00 | 0.00 | 34 | 1010.9 |
| 20260901183022 | 100 | 114 | 2.0 | 5.0 | 0.00 | 0.00 | 0.00 | 36 | 1011.1 |
| 20260901182521 | 101 | 141 | 1.0 | 3.0 | 0.00 | 0.00 | 0.00 | 38 | 1011.3 |
| 20260901182024 | 101 | 146 | 1.0 | 2.0 | 0.00 | 0.00 | 0.00 | 37 | 1011.5 |
| 20260901181522 | 100 | 285 | 1.0 | 4.0 | 0.00 | 0.00 | 0.00 | 37 | 1011.1 |
| 20260901181022 | 100 | 289 | 1.0 | 4.0 | 0.00 | 0.00 | 0.00 | 37 | 1011.3 |
| 20260901180521 | 99 | 151 | 2.0 | 4.0 | 0.00 | 0.00 | 0.00 | 39 | 1011.6 |
| 20260901180022 | 99 | 134 | 2.0 | 4.0 | 0.00 | 0.00 | 0.00 | 41 | 1012.1 |
| 20260901175522 | 99 | 139 | 1.0 | 3.0 | 0.00 | 0.00 | 0.00 | 42 | 1012.1 |
| 20260901175023 | 99 | 197 | 1.0 | 3.0 | 0.00 | 0.00 | 0.00 | 41 | 1012.1 |
| 20260901174524 | 98 | 275 | 1.0 | 3.0 | 0.00 | 0.00 | 0.00 | 43 | 1012.5 |
| 20260901174024 | 98 | 138 | 2.0 | 6.0 | 0.00 | 0.00 | 0.00 | 44 | 1012.8 |
| 20260901173526 | 98 | 135 | 1.0 | 4.0 | 0.00 | 0.00 | 0.00 | 44 | 1012.7 |
| 20260901173023 | 97 | 160 | 1.0 | 3.0 | 0.00 | 0.00 | 0.00 | 43 | 1012.7 |
| 20260901172522 | 97 | 185 | 1.0 | 3.0 | 0.00 | 0.00 | 0.00 | 45 | 1013.1 |
| 20260901172026 | 97 | 121 | 2.0 | 4.0 | 0.00 | 0.00 | 0.00 | 45 | 1013.0 |
| 20260901171523 | 97 | 99 | 1.0 | 6.0 | 0.00 | 0.00 | 0.00 | 45 | 1013.2 |
| 20260901171022 | 97 | 140 | 1.0 | 4.0 | 0.00 | 0.00 | 0.00 | 45 | 1013.0 |
| 20260901170525 | 97 | 136 | 1.0 | 5.0 | 0.00 | 0.00 | 0.00 | 45 | 1013.2 |
| 20260901170023 | 97 | 127 | 1.0 | 3.0 | 0.00 | 0.00 | 0.00 | 45 | 1013.2 |
| 20260901165527 | 97 | 156 | 2.0 | 4.0 | 0.00 | 0.00 | 0.00 | 46 | 1013.3 |
| 20260901165025 | 97 | 154 | 1.0 | 4.0 | 0.00 | 0.00 | 0.00 | 44 | 1013.0 |
| 20260901164526 | 96 | 146 | 1.0 | 5.0 | 0.00 | 0.00 | 0.00 | 45 | 1013.4 |
| 20260901164102 | 95 | 269 | 1.0 | 3.0 | 0.00 | 0.00 | 0.00 | 45 | 1013.2 |
| 20260901163547 | 95 | 216 | 1.0 | 3.0 | 0.00 | 0.00 | 0.00 | 47 | 1013.7 |
| 20260901163024 | 94 | 147 | 2.0 | 5.0 | 0.00 | 0.00 | 0.00 | 48 | 1013.9 |
| 20260901162524 | 94 | 169 | 1.0 | 5.0 | 0.00 | 0.00 | 0.00 | 48 | 1014.0 |
| 20260901162025 | 94 | 151 | 2.0 | 5.0 | 0.00 | 0.00 | 0.00 | 48 | 1013.9 |
| 20260901161524 | 95 | 153 | 2.0 | 5.0 | 0.00 | 0.00 | 0.00 | 47 | 1013.7 |
| 20260901161025 | 94 | 161 | 2.0 | 4.0 | 0.00 | 0.00 | 0.00 | 48 | 1013.9 |
| 20260901160523 | 94 | 140 | 2.0 | 4.0 | 0.00 | 0.00 | 0.00 | 49 | 1014.1 |
| 20260901160025 | 94 | 169 | 2.0 | 5.0 | 0.00 | 0.00 | 0.00 | 49 | 1013.9 |
| 20260901155540 | 94 | 149 | 1.0 | 5.0 | 0.00 | 0.00 | 0.00 | 49 | 1013.9 |
| 20260901155021 | 94 | 150 | 2.0 | 4.0 | 0.00 | 0.00 | 0.00 | 48 | 1013.8 |
| 20260901154521 | 93 | 184 | 1.0 | 3.0 | 0.00 | 0.00 | 0.00 | 49 | 1013.9 |
| 20260901154020 | 93 | 138 | 1.0 | 3.0 | 0.00 | 0.00 | 0.00 | 49 | 1014.0 |
| 20260901153520 | 94 | 142 | 2.0 | 4.0 | 0.00 | 0.00 | 0.00 | 50 | 1014.1 |
| 20260901153024 | 93 | 162 | 1.0 | 3.0 | 0.00 | 0.00 | 0.00 | 50 | 1014.0 |
| 20260901152525 | 93 | 158 | 1.0 | 3.0 | 0.00 | 0.00 | 0.00 | 51 | 1014.1 |
| 20260901152041 | 93 | 138 | 2.0 | 4.0 | 0.00 | 0.00 | 0.00 | 50 | 1014.1 |
| 20260901151524 | 92 | 180 | 1.0 | 4.0 | 0.00 | 0.00 | 0.00 | 50 | 1014.0 |
| 20260901151043 | 92 | 173 | 1.0 | 4.0 | 0.00 | 0.00 | 0.00 | 51 | 1014.1 |
| 20260901150542 | 91 | 203 | 1.0 | 3.0 | 0.00 | 0.00 | 0.00 | 53 | 1014.6 |
| 20260901150026 | 90 | 161 | 1.0 | 3.0 | 0.00 | 0.00 | 0.00 | 53 | 1014.6 |
| 20260901145526 | 90 | 149 | 2.0 | 3.0 | 0.00 | 0.00 | 0.00 | 55 | 1015.0 |
| 20260901145027 | 89 | 144 | 2.0 | 3.0 | 0.00 | 0.00 | 0.00 | 56 | 1015.2 |
| 20260901144526 | 88 | 154 | 2.0 | 3.0 | 0.00 | 0.00 | 0.00 | 56 | 1016.0 |
| 20260901144026 | 88 | 178 | 2.0 | 3.0 | 0.00 | 0.00 | 0.00 | 58 | 1016.8 |
| 20260901143526 | 87 | 122 | 1.0 | 2.0 | 0.00 | 0.00 | 0.00 | 59 | 1018.6 |
| 20260901143026 | 87 | 128 | 3.0 | 5.0 | 0.00 | 0.00 | 0.00 | 59 | 1019.1 |
| 20260901142547 | 86 | 181 | 1.0 | 2.0 | 0.00 | 0.00 | 0.00 | 61 | 1023.4 |
| 20260901142026 | 85 | 116 | 2.0 | 5.0 | 0.00 | 0.00 | 0.00 | 62 | 1025.3 |
| 20260901141527 | 85 | 191 | 2.0 | 2.0 | 0.00 | 0.00 | 0.00 | 63 | 1031.7 |
| 20260901141026 | 84 | 168 | 1.0 | 2.0 | 0.00 | 0.00 | 0.00 | 64 | 1036.5 |
| 20260901140527 | 84 | 159 | 2.0 | 2.0 | 0.00 | 0.00 | 0.00 | 64 | 1033.8 |
| 20260901140027 | 83 | 149 | 1.0 | 2.0 | 0.00 | 0.00 | 0.00 | 65 | 1038.2 |
| 20260901135527 | 83 | 167 | 2.0 | 3.0 | 0.00 | 0.00 | 0.00 | 66 | 1041.1 |
| 20260901135027 | 82 | 114 | 1.0 | 2.0 | 0.00 | 0.00 | 0.00 | 67 | 1044.5 |
| 20260901134527 | 82 | 116 | 1.0 | 2.0 | 0.00 | 0.00 | 0.00 | 67 | 1048.9 |
| 20260901134029 | 81 | 183 | 1.0 | 2.0 | 0.00 | 0.00 | 0.00 | 69 | 858.2 |
| 20260901133527 | 81 | 117 | 2.0 | 2.0 | 0.00 | 0.00 | 0.00 | 70 | 858.1 |
| 20260901133027 | 80 | 158 | 1.0 | 2.0 | 0.00 | 0.00 | 0.00 | 71 | 858.0 |
| 20260901132528 | 80 | 162 | 1.0 | 2.0 | 0.00 | 0.00 | 0.00 | 72 | 858.0 |
| 20260901132029 | 79 | 63 | 1.0 | 2.0 | 0.00 | 0.00 | 0.00 | 73 | 858.0 |
| 20260901131528 | 79 | 67 | 1.0 | 2.0 | 0.00 | 0.00 | 0.00 | 74 | 857.9 |
| 20260901131028 | 79 | 119 | 1.0 | 2.0 | 0.00 | 0.00 | 0.00 | 75 | 857.9 |
| 20260901130551 | 78 | 161 | 1.0 | 1.0 | 0.00 | 0.00 | 0.00 | 76 | 857.9 |
| 20260901130029 | 78 | 157 | 1.0 | 2.0 | 0.00 | 0.00 | 0.00 | 76 | 857.9 |
| 20260901125547 | 78 | 189 | 1.0 | 2.0 | 0.00 | 0.00 | 0.00 | 77 | 857.8 |
| 20260901125028 | 77 | 146 | 1.0 | 1.0 | 0.00 | 0.00 | 0.00 | 77 | 857.8 |
| 20260901124528 | 77 | 142 | 1.0 | 1.0 | 0.00 | 0.00 | 0.00 | 77 | 857.8 |
| 20260901124029 | 77 | 126 | 1.0 | 1.0 | 0.00 | 0.00 | 0.00 | 78 | 857.8 |
| 20260901123549 | 77 | 158 | 1.0 | 1.0 | 0.00 | 0.00 | 0.00 | 78 | 857.8 |
| 20260901123030 | 76 | 144 | 1.0 | 1.0 | 0.00 | 0.00 | 0.00 | 79 | 857.8 |
| 20260901122528 | 76 | 149 | 1.0 | 2.0 | 0.00 | 0.00 | 0.00 | 79 | 857.8 |
| 20260901122028 | 76 | 165 | 0.0 | 1.0 | 0.00 | 0.00 | 0.00 | 79 | 857.8 |
| 20260901121531 | 76 | 148 | 0.0 | 1.0 | 0.00 | 0.00 | 0.00 | 79 | 857.8 |
| 20260901121048 | 76 | 0.0 | 0.0 | 0.00 | 0.00 | 0.00 | 79 | 857.7 | |
| 20260901120528 | 76 | 0.0 | 0.0 | 0.00 | 0.00 | 0.00 | 79 | 857.7 | |
| 20260901120030 | 76 | 0.0 | 0.0 | 0.00 | 0.00 | 0.00 | 79 | 857.7 | |
| 20260901115549 | 76 | 139 | 0.0 | 1.0 | 0.00 | 0.00 | 0.00 | 80 | 857.7 |
| 20260901115049 | 76 | 0.0 | 0.0 | 0.00 | 0.00 | 0.00 | 80 | 857.7 | |
| 20260901114529 | 0 | 147 | 0.0 | 0.0 | 0.00 | 0.00 | 0.00 | ||
| 20260901114051 | 75 | 145 | 0.0 | 1.0 | 0.00 | 0.00 | 0.00 | 80 | 857.7 |
| 20260901113529 | 75 | 0.0 | 0.0 | 0.00 | 0.00 | 0.00 | 80 | 857.7 | |
| 20260901113049 | 75 | 0.0 | 0.0 | 0.00 | 0.00 | 0.00 | 80 | 857.7 | |
| 20260901112529 | 76 | 0.0 | 0.0 | 0.00 | 0.00 | 0.00 | 80 | 857.7 | |
| 20260901112030 | 76 | 0.0 | 0.0 | 0.00 | 0.00 | 0.00 | 80 | 857.7 | |
| 20260901111532 | 76 | 0.0 | 0.0 | 0.00 | 0.00 | 0.00 | 80 | 857.7 | |
| 20260901111032 | 76 | 0.0 | 0.0 | 0.00 | 0.00 | 0.00 | 80 | 857.7 | |
| 20260901110530 | 76 | 0.0 | 0.0 | 0.00 | 0.00 | 0.00 | 79 | 857.7 | |
| 20260901110130 | 76 | 0.0 | 0.0 | 0.00 | 0.00 | 0.00 | 79 | 857.7 | |
| 20260901105531 | 76 | 0.0 | 0.0 | 0.00 | 0.00 | 0.00 | 79 | 857.7 | |
| 20260901105032 | 76 | 0.0 | 0.0 | 0.00 | 0.00 | 0.00 | 79 | 857.7 | |
| 20260901104530 | 76 | 0.0 | 0.0 | 0.00 | 0.00 | 0.00 | 79 | 857.7 | |
| 20260901104051 | 76 | 0.0 | 0.0 | 0.00 | 0.00 | 0.00 | 79 | 857.7 | |
| 20260901103550 | 76 | 0.0 | 0.0 | 0.00 | 0.00 | 0.00 | 80 | 857.7 | |
| 20260901103031 | 76 | 0.0 | 0.0 | 0.00 | 0.00 | 0.00 | 79 | 857.7 | |
| 20260901102530 | 76 | 0.0 | 0.0 | 0.00 | 0.00 | 0.00 | 79 | 857.7 | |
| 20260901102031 | 76 | 0.0 | 0.0 | 0.00 | 0.00 | 0.00 | 79 | 857.7 | |
| 20260901101531 | 76 | 0.0 | 0.0 | 0.00 | 0.00 | 0.00 | 79 | 857.7 | |
| 20260901101034 | 76 | 0.0 | 0.0 | 0.00 | 0.00 | 0.00 | 79 | 857.7 | |
| 20260901100531 | 76 | 0.0 | 0.0 | 0.00 | 0.00 | 0.00 | 78 | 857.8 | |
| 20260901100033 | 77 | 0.0 | 0.0 | 0.00 | 0.00 | 0.00 | 78 | 857.8 | |
| 20260901095533 | 77 | 0.0 | 0.0 | 0.00 | 0.00 | 0.00 | 78 | 857.8 | |
| 20260901095035 | 77 | 0.0 | 0.0 | 0.00 | 0.00 | 0.00 | 78 | 857.8 | |
| 20260901094533 | 77 | 0.0 | 0.0 | 0.00 | 0.00 | 0.00 | 77 | 857.8 | |
| 20260901094034 | 77 | 0.0 | 0.0 | 0.00 | 0.00 | 0.00 | 77 | 857.8 | |
| 20260901093532 | 77 | 172 | 0.0 | 1.0 | 0.00 | 0.00 | 0.00 | 77 | 857.8 |
| 20260901093032 | 77 | 0.0 | 0.0 | 0.00 | 0.00 | 0.00 | 77 | 857.8 | |
| 20260901092531 | 77 | 0.0 | 0.0 | 0.00 | 0.00 | 0.00 | 76 | 857.8 | |
| 20260901092053 | 77 | 0.0 | 0.0 | 0.00 | 0.00 | 0.00 | 76 | 857.8 | |
| 20260901091532 | 77 | 0.0 | 0.0 | 0.00 | 0.00 | 0.00 | 76 | 857.8 | |
| 20260901091051 | 78 | 0.0 | 0.0 | 0.00 | 0.00 | 0.00 | 75 | 857.8 | |
| 20260901090552 | 78 | 0.0 | 0.0 | 0.00 | 0.00 | 0.00 | 75 | 857.8 | |
| 20260901090032 | 78 | 0.0 | 0.0 | 0.00 | 0.00 | 0.00 | 75 | 857.8 | |
| 20260901085533 | 78 | 0.0 | 0.0 | 0.00 | 0.00 | 0.00 | 75 | 857.8 | |
| 20260901085032 | 78 | 224 | 0.0 | 0.0 | 0.00 | 0.00 | 0.00 | 74 | 857.8 |
| 20260901084534 | 78 | 223 | 0.0 | 1.0 | 0.00 | 0.00 | 0.00 | 75 | 857.8 |
| 20260901084032 | 78 | 194 | 0.0 | 1.0 | 0.00 | 0.00 | 0.00 | 75 | 857.8 |
| 20260901083535 | 78 | 206 | 1.0 | 2.0 | 0.00 | 0.00 | 0.00 | 74 | 857.9 |
| 20260901083032 | 79 | 194 | 1.0 | 1.0 | 0.00 | 0.00 | 0.00 | 74 | 967.6 |
| 20260901082532 | 79 | 210 | 1.0 | 1.0 | 0.00 | 0.00 | 0.00 | 74 | 1076.3 |
| 20260901082032 | 79 | 201 | 0.0 | 1.0 | 0.00 | 0.00 | 0.00 | 73 | 1073.3 |
| 20260901081533 | 79 | 210 | 1.0 | 1.0 | 0.00 | 0.00 | 0.00 | 72 | 1070.9 |
| 20260901081035 | 79 | 211 | 0.0 | 1.0 | 0.00 | 0.00 | 0.00 | 72 | 1070.2 |
| 20260901080533 | 79 | 207 | 1.0 | 1.0 | 0.00 | 0.00 | 0.00 | 72 | 1069.5 |
| 20260901080036 | 79 | 231 | 1.0 | 2.0 | 0.00 | 0.00 | 0.00 | 71 | 1065.7 |
| 20260901075616 | 80 | 219 | 1.0 | 1.0 | 0.00 | 0.00 | 0.00 | 71 | 1064.5 |
| 20260901075033 | 80 | 210 | 1.0 | 1.0 | 0.00 | 0.00 | 0.00 | 71 | 1063.6 |
| 20260901074534 | 80 | 210 | 1.0 | 1.0 | 0.00 | 0.00 | 0.00 | 71 | 1063.3 |
| 20260901074034 | 80 | 195 | 1.0 | 1.0 | 0.00 | 0.00 | 0.00 | 71 | 1062.8 |
| 20260901073533 | 80 | 207 | 1.0 | 2.0 | 0.00 | 0.00 | 0.00 | 70 | 1061.3 |
| 20260901073035 | 80 | 208 | 1.0 | 1.0 | 0.00 | 0.00 | 0.00 | 70 | 1061.2 |
| 20260901072534 | 80 | 192 | 1.0 | 2.0 | 0.00 | 0.00 | 0.00 | 70 | 1058.9 |
| 20260901072040 | 81 | 210 | 1.0 | 1.0 | 0.00 | 0.00 | 0.00 | 70 | 1058.2 |
| 20260901071521 | 81 | 190 | 1.0 | 2.0 | 0.00 | 0.00 | 0.00 | 69 | 1056.2 |
| 20260901071035 | 81 | 195 | 1.0 | 1.0 | 0.00 | 0.00 | 0.00 | 69 | 1055.6 |
| 20260901070555 | 81 | 209 | 1.0 | 1.0 | 0.00 | 0.00 | 0.00 | 69 | 1055.0 |
| 20260901070022 | 81 | 209 | 1.0 | 1.0 | 0.00 | 0.00 | 0.00 | 68 | 1053.1 |
| 20260901065522 | 81 | 211 | 1.0 | 1.0 | 0.00 | 0.00 | 0.00 | 68 | 1049.0 |
| 20260901065036 | 82 | 201 | 1.0 | 2.0 | 0.00 | 0.00 | 0.00 | 67 | 1047.1 |
| 20260901064521 | 82 | 207 | 1.0 | 2.0 | 0.00 | 0.00 | 0.00 | 67 | 1045.1 |
| 20260901064021 | 82 | 218 | 1.0 | 2.0 | 0.00 | 0.00 | 0.00 | 66 | 1043.9 |
| 20260901063523 | 82 | 182 | 1.0 | 2.0 | 0.00 | 0.00 | 0.00 | 66 | 1043.6 |
| 20260901063035 | 82 | 205 | 1.0 | 2.0 | 0.00 | 0.00 | 0.00 | 66 | 1042.9 |
| 20260901062522 | 82 | 121 | 1.0 | 1.0 | 0.00 | 0.00 | 0.00 | 66 | 1042.7 |
| 20260901062034 | 82 | 181 | 1.0 | 2.0 | 0.00 | 0.00 | 0.00 | 66 | 1041.4 |
| 20260901061522 | 82 | 208 | 1.0 | 2.0 | 0.00 | 0.00 | 0.00 | 66 | 1040.5 |
| 20260901061041 | 83 | 85 | 2.0 | 2.0 | 0.00 | 0.00 | 0.00 | 66 | 1040.5 |
| 20260901060524 | 83 | 171 | 1.0 | 2.0 | 0.00 | 0.00 | 0.00 | 65 | 1040.6 |
| 20260901060021 | 83 | 103 | 1.0 | 2.0 | 0.00 | 0.00 | 0.00 | 65 | 1040.3 |
| 20260901055603 | 83 | 134 | 1.0 | 2.0 | 0.00 | 0.00 | 0.00 | 65 | 1040.5 |
| 20260901055023 | 83 | 170 | 1.0 | 2.0 | 0.00 | 0.00 | 0.00 | 65 | 1040.2 |
| 20260901054605 | 83 | 174 | 1.0 | 3.0 | 0.00 | 0.00 | 0.00 | 65 | 1039.4 |
| 20260901054023 | 83 | 190 | 1.0 | 2.0 | 0.00 | 0.00 | 0.00 | 65 | 1038.5 |
| 20260901053525 | 83 | 168 | 1.0 | 2.0 | 0.00 | 0.00 | 0.00 | 64 | 1037.1 |
| 20260901053024 | 83 | 119 | 1.0 | 3.0 | 0.00 | 0.00 | 0.00 | 64 | 1036.2 |
| 20260901052527 | 83 | 201 | 1.0 | 2.0 | 0.00 | 0.00 | 0.00 | 64 | 1035.4 |
| 20260901052020 | 84 | 167 | 2.0 | 3.0 | 0.00 | 0.00 | 0.00 | 64 | 1034.5 |
| 20260901051522 | 84 | 154 | 2.0 | 3.0 | 0.00 | 0.00 | 0.00 | 64 | 1033.8 |
| 20260901051024 | 84 | 169 | 2.0 | 4.0 | 0.00 | 0.00 | 0.00 | 63 | 1033.1 |
| 20260901050527 | 84 | 132 | 2.0 | 5.0 | 0.00 | 0.00 | 0.00 | 63 | 1032.6 |
| 20260901050023 | 84 | 156 | 2.0 | 4.0 | 0.00 | 0.00 | 0.00 | 63 | 1032.1 |
| 20260901045546 | 84 | 152 | 2.0 | 3.0 | 0.00 | 0.00 | 0.00 | 63 | 1031.9 |
| 20260901045024 | 84 | 142 | 2.0 | 7.0 | 0.00 | 0.00 | 0.00 | 63 | 1032.2 |
| 20260901044521 | 84 | 153 | 2.0 | 4.0 | 0.00 | 0.00 | 0.00 | 63 | 1031.8 |
| 20260901044021 | 84 | 124 | 2.0 | 3.0 | 0.00 | 0.00 | 0.00 | 63 | 1031.9 |
| 20260901043532 | 84 | 152 | 2.0 | 4.0 | 0.00 | 0.00 | 0.00 | 63 | 1032.3 |
| 20260901043024 | 84 | 150 | 2.0 | 4.0 | 0.00 | 0.00 | 0.00 | 63 | 1033.1 |
| 20260901042521 | 84 | 152 | 2.0 | 3.0 | 0.00 | 0.00 | 0.00 | 63 | 1033.0 |
| 20260901042058 | 84 | 110 | 1.0 | 2.0 | 0.00 | 0.00 | 0.00 | 62 | 1031.9 |
| 20260901041521 | 84 | 167 | 1.0 | 3.0 | 0.00 | 0.00 | 0.00 | 62 | 1031.5 |
| 20260901041031 | 84 | 153 | 2.0 | 3.0 | 0.00 | 0.00 | 0.00 | 62 | 1030.6 |
| 20260901040600 | 84 | 141 | 1.0 | 2.0 | 0.00 | 0.00 | 0.00 | 62 | 1029.5 |
| 20260901040037 | 84 | 162 | 2.0 | 3.0 | 0.00 | 0.00 | 0.00 | 61 | 1029.1 |
| 20260901035534 | 85 | 127 | 2.0 | 4.0 | 0.00 | 0.00 | 0.00 | 61 | 1028.5 |
| 20260901035043 | 85 | 170 | 1.0 | 3.0 | 0.00 | 0.00 | 0.00 | 61 | 1027.0 |
| 20260901034522 | 85 | 141 | 2.0 | 3.0 | 0.00 | 0.00 | 0.00 | 60 | 1026.2 |
| 20260901034031 | 85 | 174 | 1.0 | 4.0 | 0.00 | 0.00 | 0.00 | 60 | 1025.2 |
| 20260901033525 | 85 | 159 | 1.0 | 4.0 | 0.00 | 0.00 | 0.00 | 60 | 1024.4 |
| 20260901033021 | 85 | 165 | 2.0 | 3.0 | 0.00 | 0.00 | 0.00 | 59 | 1023.7 |
| 20260901032525 | 86 | 149 | 2.0 | 6.0 | 0.00 | 0.00 | 0.00 | 59 | 1023.6 |
| 20260901032022 | 86 | 152 | 2.0 | 3.0 | 0.00 | 0.00 | 0.00 | 59 | 1022.7 |
| 20260901031525 | 86 | 163 | 2.0 | 3.0 | 0.00 | 0.00 | 0.00 | 58 | 1021.8 |
| 20260901031022 | 86 | 164 | 2.0 | 5.0 | 0.00 | 0.00 | 0.00 | 58 | 1020.9 |
| 20260901030542 | 86 | 150 | 2.0 | 5.0 | 0.00 | 0.00 | 0.00 | 58 | 1020.8 |
| 20260901030022 | 86 | 154 | 2.0 | 4.0 | 0.00 | 0.00 | 0.00 | 58 | 1021.3 |
| 20260901025522 | 87 | 169 | 2.0 | 3.0 | 0.00 | 0.00 | 0.00 | 58 | 1021.1 |
| 20260901025024 | 87 | 156 | 1.0 | 3.0 | 0.00 | 0.00 | 0.00 | 58 | 1020.8 |
| 20260901024520 | 87 | 143 | 2.0 | 4.0 | 0.00 | 0.00 | 0.00 | 58 | 1020.6 |
| 20260901024024 | 87 | 164 | 1.0 | 3.0 | 0.00 | 0.00 | 0.00 | 57 | 1020.4 |
| 20260901023525 | 87 | 164 | 1.0 | 3.0 | 0.00 | 0.00 | 0.00 | 57 | 1019.9 |
| 20260901023023 | 87 | 156 | 2.0 | 4.0 | 0.00 | 0.00 | 0.00 | 57 | 1019.6 |
| 20260901022543 | 87 | 159 | 2.0 | 4.0 | 0.00 | 0.00 | 0.00 | 57 | 1019.3 |
| 20260901022023 | 88 | 151 | 2.0 | 3.0 | 0.00 | 0.00 | 0.00 | 57 | 1019.4 |
| 20260901021524 | 88 | 167 | 1.0 | 2.0 | 0.00 | 0.00 | 0.00 | 57 | 1019.3 |
| 20260901021030 | 88 | 163 | 1.0 | 4.0 | 0.00 | 0.00 | 0.00 | 56 | 1018.3 |
| 20260901020523 | 88 | 172 | 1.0 | 3.0 | 0.00 | 0.00 | 0.00 | 55 | 1017.5 |
| 20260901020021 | 88 | 151 | 1.0 | 4.0 | 0.00 | 0.00 | 0.00 | 55 | 1017.2 |
| 20260901015521 | 89 | 159 | 1.0 | 3.0 | 0.00 | 0.00 | 0.00 | 55 | 1016.8 |
| 20260901015052 | 89 | 140 | 1.0 | 2.0 | 0.00 | 0.00 | 0.00 | 54 | 1016.4 |
| 20260901014524 | 89 | 146 | 1.0 | 3.0 | 0.00 | 0.00 | 0.00 | 54 | 1016.0 |
| 20260901014027 | 89 | 129 | 1.0 | 2.0 | 0.00 | 0.00 | 0.00 | 53 | 1015.6 |
| 20260901013540 | 89 | 185 | 1.0 | 2.0 | 0.00 | 0.00 | 0.00 | 53 | 1015.3 |
| 20260901013035 | 90 | 172 | 1.0 | 3.0 | 0.00 | 0.00 | 0.00 | 52 | 1014.9 |
| 20260901012531 | 90 | 192 | 1.0 | 3.0 | 0.00 | 0.00 | 0.00 | 52 | 1014.6 |
| 20260901012041 | 90 | 142 | 1.0 | 3.0 | 0.00 | 0.00 | 0.00 | 51 | 1014.3 |
| 20260901011539 | 90 | 171 | 1.0 | 3.0 | 0.00 | 0.00 | 0.00 | 50 | 1013.8 |
| 20260901011025 | 91 | 146 | 1.0 | 2.0 | 0.00 | 0.00 | 0.00 | 49 | 1013.7 |
| 20260901010542 | 91 | 175 | 1.0 | 3.0 | 0.00 | 0.00 | 0.00 | 49 | 1013.3 |
| 20260901010024 | 91 | 172 | 1.0 | 3.0 | 0.00 | 0.00 | 0.00 | 48 | 1013.1 |
| 20260901005522 | 91 | 166 | 1.0 | 2.0 | 0.00 | 0.00 | 0.00 | 47 | 1012.7 |
| 20260901005025 | 91 | 210 | 1.0 | 1.0 | 0.00 | 0.00 | 0.00 | 46 | 1012.4 |
| 20260901004522 | 92 | 206 | 1.0 | 1.0 | 0.00 | 0.00 | 0.00 | 44 | 1012.1 |
| 20260901004026 | 92 | 224 | 1.0 | 1.0 | 0.00 | 0.00 | 0.00 | 43 | 1011.8 |
| 20260901003531 | 92 | 187 | 1.0 | 2.0 | 0.00 | 0.00 | 0.00 | 43 | 1011.5 |
| 20260901003022 | 92 | 205 | 1.0 | 1.0 | 0.00 | 0.00 | 0.00 | 43 | 1011.5 |
| 20260901002523 | 93 | 220 | 1.0 | 1.0 | 0.00 | 0.00 | 0.00 | 42 | 1011.3 |
| 20260901002025 | 93 | 177 | 0.0 | 1.0 | 0.00 | 0.00 | 0.00 | 41 | 1011.2 |
| 20260901001549 | 93 | 0.0 | 0.0 | 0.00 | 0.00 | 0.00 | 42 | 1011.2 | |
| 20260901001025 | 94 | 0.0 | 0.0 | 0.00 | 0.00 | 0.00 | 41 | 1011.0 | |
| 20260901000531 | 0 | 162 | 0.0 | 1.0 | 0.00 | 0.00 | 0.00 | ||
| 20260901000022 | 94 | 225 | 0.0 | 1.0 | 0.00 | 0.00 | 0.00 | 41 | 1011.0 |
| 20260831235523 | 95 | 205 | 0.0 | 2.0 | 0.00 | 0.00 | 0.00 | 40 | 1010.9 |
| 20260831235022 | 95 | 209 | 0.0 | 1.0 | 0.00 | 0.00 | 0.00 | 40 | 1010.9 |
| 20260831234538 | 95 | 152 | 0.0 | 1.0 | 0.00 | 0.00 | 0.00 | 40 | 1010.8 |
| 20260831234023 | 96 | 160 | 0.0 | 2.0 | 0.00 | 0.00 | 0.00 | 39 | 1010.7 |
| 20260831233524 | 96 | 158 | 1.0 | 2.0 | 0.00 | 0.00 | 0.00 | 39 | 1010.6 |
| 20260831233023 | 96 | 166 | 0.0 | 2.0 | 0.00 | 0.00 | 0.00 | 39 | 1010.7 |
| 20260831232526 | 96 | 182 | 0.0 | 2.0 | 0.00 | 0.00 | 0.00 | 38 | 1010.6 |
| 20260831232024 | 96 | 210 | 0.0 | 2.0 | 0.00 | 0.00 | 0.00 | 37 | 1010.4 |
| 20260831231529 | 97 | 190 | 1.0 | 2.0 | 0.00 | 0.00 | 0.00 | 37 | 1010.4 |
| 20260831231022 | 97 | 137 | 1.0 | 3.0 | 0.00 | 0.00 | 0.00 | 37 | 1010.3 |
| 20260831230521 | 97 | 191 | 1.0 | 2.0 | 0.00 | 0.00 | 0.00 | 37 | 1010.2 |
| 20260831230021 | 97 | 211 | 1.0 | 2.0 | 0.00 | 0.00 | 0.00 | 37 | 1010.2 |
| 20260831225521 | 97 | 232 | 0.0 | 1.0 | 0.00 | 0.00 | 0.00 | 37 | 1010.2 |
| 20260831225024 | 97 | 139 | 0.0 | 2.0 | 0.00 | 0.00 | 0.00 | 36 | 1010.0 |
| 20260831224523 | 97 | 167 | 1.0 | 2.0 | 0.00 | 0.00 | 0.00 | 35 | 1010.0 |
| 20260831224024 | 98 | 128 | 2.0 | 5.0 | 0.00 | 0.00 | 0.00 | 36 | 1009.9 |
| 20260831223544 | 98 | 143 | 1.0 | 4.0 | 0.00 | 0.00 | 0.00 | 36 | 1009.9 |
| 20260831223020 | 98 | 151 | 1.0 | 2.0 | 0.00 | 0.00 | 0.00 | 36 | 1009.9 |
| 20260831222532 | 98 | 130 | 1.0 | 3.0 | 0.00 | 0.00 | 0.00 | 36 | 1009.9 |
| 20260831222022 | 98 | 108 | 1.0 | 3.0 | 0.00 | 0.00 | 0.00 | 36 | 1010.1 |
| 20260831221523 | 98 | 149 | 1.0 | 2.0 | 0.00 | 0.00 | 0.00 | 36 | 1010.1 |
| 20260831221042 | 98 | 140 | 1.0 | 4.0 | 0.00 | 0.00 | 0.00 | 35 | 1010.0 |
| 20260831220533 | 98 | 151 | 1.0 | 4.0 | 0.00 | 0.00 | 0.00 | 36 | 1010.0 |
| 20260831220024 | 98 | 138 | 1.0 | 4.0 | 0.00 | 0.00 | 0.00 | 37 | 1010.1 |
| 20260831215528 | 98 | 279 | 0.0 | 3.0 | 0.00 | 0.00 | 0.00 | 36 | 1010.1 |
| 20260831215041 | 98 | 165 | 0.0 | 2.0 | 0.00 | 0.00 | 0.00 | 36 | 1010.2 |
| 20260831214534 | 98 | 181 | 0.0 | 2.0 | 0.00 | 0.00 | 0.00 | 35 | 1010.1 |
| 20260831214021 | 98 | 141 | 1.0 | 4.0 | 0.00 | 0.00 | 0.00 | 36 | 1010.0 |
| 20260831213524 | 99 | 143 | 1.0 | 3.0 | 0.00 | 0.00 | 0.00 | 35 | 1009.9 |
| 20260831213101 | 99 | 147 | 1.0 | 3.0 | 0.00 | 0.00 | 0.00 | 35 | 1009.7 |
| 20260831212522 | 99 | 139 | 2.0 | 4.0 | 0.00 | 0.00 | 0.00 | 34 | 1009.6 |